Simultaneous Nadir Overpasses (SNOs) Predictions

Prediction of SNOs between METOP-B and TERRA Satellite Orbit:

Table of predicted SNOs for the next 14.0 days since TLE Epoch: 11/18/2023
Index Date (METOP-B) Time (METOP-B) Lat,Lon (METOP-B) SZA (METOP-B ) Date (TERRA) Time (TERRA) Lat,Lon (TERRA) SZA (TERRA ) Distance(km) Time Diff (sec)
1 11/18/2023 20:25:14 -80.60, 81.72 78.80 11/18/2023 20:25:16 -80.60, 81.86 78.78 2.70 2
2 11/21/2023 11:46:09 80.61, 31.65 101.82 11/21/2023 11:46:14 80.61, 31.66 101.82 0.15 5
3 11/21/2023 12:36:47 -80.68,-159.99 78.04 11/21/2023 12:35:34 -80.68,-159.88 78.05 2.05 73
4 11/24/2023 03:07:04 -80.61, -18.60 77.65 11/24/2023 03:07:12 -80.61, -18.59 77.64 0.48 8
5 11/24/2023 03:57:41 80.69, 149.88 102.53 11/24/2023 03:56:31 80.68, 149.78 102.49 2.13 70
6 11/26/2023 18:28:00 80.59, -69.13 102.82 11/26/2023 18:28:10 80.59, -69.06 102.83 1.46 10
7 11/26/2023 19:18:38 -80.66, 99.25 77.04 11/26/2023 19:17:30 -80.67, 99.38 77.04 2.44 68
8 11/29/2023 09:48:55 -80.61,-119.12 76.70 11/29/2023 09:49:08 -80.60,-119.28 76.72 2.97 13
9 11/29/2023 10:39:33 80.66, 48.99 103.42 11/29/2023 10:38:27 80.67, 49.10 103.41 2.06 66
10 12/02/2023 01:09:51 80.58,-169.78 103.65 12/02/2023 01:10:05 80.58,-169.68 103.66 1.89 14



Historial Predications of SNOs between METOP-B and TERRA
